Location: Unspecified
(0.0000°N, 0.0000°E)
Time: 18:03:33
(UTC+00:00)

Envisat - Pass Details

Date: 29 September 2022
Orbit: 764 x 765 km, 98.2° (Epoch: 26 September)

Event Time Altitude Azimuth Distance (km) Brightness Sun altitude
Rises 05:00:07 0° 338° (NNW) 3,213 6.0 -12.6°
Reaches altitude 10° 05:03:29 10° 314° (NW) 2,292 5.0 -11.7°
Maximum altitude 05:06:06 14° 282° (WNW) 2,012 4.5 -11.1°
Enters shadow 05:06:27 14° 278° (W) 2,018 4.5 -11.0°
